<?xml version="1.0" encoding="UTF-8" standalone="no" ?>
<gpx xmlns="http://www.topografix.com/GPX/1/1" xmlns:xsi="http://www.w3.org/2001/XMLSchema-instance" xsi:schemaLocation="http://www.topografix.com/GPX/1/1 http://www.topografix.com/GPX/1/1/gpx.xsd" version="1.1" creator="VisuGPX - https://www.visugpx.com">
  <metadata>
    <name>Rossignol Run - 14 kms </name>
  </metadata>
  <trk>
    <name><![CDATA[Rossignol Run 2026 - 14km-23049571]]></name>
    <trkseg>
      <trkpt lat="49.71857" lon="5.48326">
        <ele>335</ele>
        <time>2025-12-18T15:40:44Z</time>
      </trkpt>
      <trkpt lat="49.71905" lon="5.48368">
        <ele>335</ele>
        <time>2025-12-18T15:41:12Z</time>
      </trkpt>
      <trkpt lat="49.71932" lon="5.48389">
        <ele>335</ele>
        <time>2025-12-18T15:41:27Z</time>
      </trkpt>
      <trkpt lat="49.71955" lon="5.48408">
        <ele>336</ele>
        <time>2025-12-18T15:41:40Z</time>
      </trkpt>
      <trkpt lat="49.71959" lon="5.48396">
        <ele>336</ele>
        <time>2025-12-18T15:41:44Z</time>
      </trkpt>
      <trkpt lat="49.71959" lon="5.48396">
        <ele>336</ele>
        <time>2025-12-18T15:41:44Z</time>
      </trkpt>
      <trkpt lat="49.71995" lon="5.48309">
        <ele>335</ele>
        <time>2025-12-18T15:42:18Z</time>
      </trkpt>
      <trkpt lat="49.71997" lon="5.48298">
        <ele>335</ele>
        <time>2025-12-18T15:42:21Z</time>
      </trkpt>
      <trkpt lat="49.71997" lon="5.48286">
        <ele>336</ele>
        <time>2025-12-18T15:42:25Z</time>
      </trkpt>
      <trkpt lat="49.71992" lon="5.48244">
        <ele>336</ele>
        <time>2025-12-18T15:42:39Z</time>
      </trkpt>
      <trkpt lat="49.71989" lon="5.48204">
        <ele>337</ele>
        <time>2025-12-18T15:42:52Z</time>
      </trkpt>
      <trkpt lat="49.7199" lon="5.48167">
        <ele>338</ele>
        <time>2025-12-18T15:43:04Z</time>
      </trkpt>
      <trkpt lat="49.71993" lon="5.48145">
        <ele>338</ele>
        <time>2025-12-18T15:43:11Z</time>
      </trkpt>
      <trkpt lat="49.72" lon="5.48111">
        <ele>339</ele>
        <time>2025-12-18T15:43:23Z</time>
      </trkpt>
      <trkpt lat="49.72009" lon="5.48084">
        <ele>339</ele>
        <time>2025-12-18T15:43:33Z</time>
      </trkpt>
      <trkpt lat="49.72017" lon="5.48067">
        <ele>340</ele>
        <time>2025-12-18T15:43:39Z</time>
      </trkpt>
      <trkpt lat="49.7202" lon="5.48055">
        <ele>340</ele>
        <time>2025-12-18T15:43:44Z</time>
      </trkpt>
      <trkpt lat="49.72034" lon="5.48036">
        <ele>341</ele>
        <time>2025-12-18T15:43:53Z</time>
      </trkpt>
      <trkpt lat="49.72034" lon="5.48036">
        <ele>341</ele>
        <time>2025-12-18T15:43:53Z</time>
      </trkpt>
      <trkpt lat="49.72042" lon="5.48027">
        <ele>341</ele>
        <time>2025-12-18T15:43:58Z</time>
      </trkpt>
      <trkpt lat="49.72045" lon="5.48044">
        <ele>341</ele>
        <time>2025-12-18T15:44:04Z</time>
      </trkpt>
      <trkpt lat="49.72053" lon="5.48058">
        <ele>342</ele>
        <time>2025-12-18T15:44:10Z</time>
      </trkpt>
      <trkpt lat="49.72082" lon="5.4808">
        <ele>343</ele>
        <time>2025-12-18T15:44:26Z</time>
      </trkpt>
      <trkpt lat="49.72097" lon="5.4804">
        <ele>344</ele>
        <time>2025-12-18T15:44:41Z</time>
      </trkpt>
      <trkpt lat="49.7211" lon="5.48019">
        <ele>344</ele>
        <time>2025-12-18T15:44:50Z</time>
      </trkpt>
      <trkpt lat="49.72119" lon="5.4801">
        <ele>344</ele>
        <time>2025-12-18T15:44:55Z</time>
      </trkpt>
      <trkpt lat="49.72166" lon="5.47989">
        <ele>346</ele>
        <time>2025-12-18T15:45:20Z</time>
      </trkpt>
      <trkpt lat="49.72177" lon="5.47984">
        <ele>346</ele>
        <time>2025-12-18T15:45:26Z</time>
      </trkpt>
      <trkpt lat="49.72196" lon="5.47972">
        <ele>347</ele>
        <time>2025-12-18T15:45:36Z</time>
      </trkpt>
      <trkpt lat="49.72216" lon="5.47958">
        <ele>347</ele>
        <time>2025-12-18T15:45:47Z</time>
      </trkpt>
      <trkpt lat="49.72224" lon="5.47947">
        <ele>347</ele>
        <time>2025-12-18T15:45:52Z</time>
      </trkpt>
      <trkpt lat="49.72251" lon="5.479">
        <ele>347</ele>
        <time>2025-12-18T15:46:13Z</time>
      </trkpt>
      <trkpt lat="49.7229" lon="5.47827">
        <ele>347</ele>
        <time>2025-12-18T15:46:43Z</time>
      </trkpt>
      <trkpt lat="49.72327" lon="5.4778">
        <ele>349</ele>
        <time>2025-12-18T15:47:07Z</time>
      </trkpt>
      <trkpt lat="49.72361" lon="5.47749">
        <ele>350</ele>
        <time>2025-12-18T15:47:27Z</time>
      </trkpt>
      <trkpt lat="49.7241" lon="5.47703">
        <ele>353</ele>
        <time>2025-12-18T15:47:56Z</time>
      </trkpt>
      <trkpt lat="49.72433" lon="5.47669">
        <ele>354</ele>
        <time>2025-12-18T15:48:12Z</time>
      </trkpt>
      <trkpt lat="49.7244" lon="5.47656">
        <ele>354</ele>
        <time>2025-12-18T15:48:17Z</time>
      </trkpt>
      <trkpt lat="49.72471" lon="5.47599">
        <ele>354</ele>
        <time>2025-12-18T15:48:41Z</time>
      </trkpt>
      <trkpt lat="49.72479" lon="5.47587">
        <ele>354</ele>
        <time>2025-12-18T15:48:47Z</time>
      </trkpt>
      <trkpt lat="49.72535" lon="5.47512">
        <ele>353</ele>
        <time>2025-12-18T15:49:24Z</time>
      </trkpt>
      <trkpt lat="49.72543" lon="5.4752">
        <ele>354</ele>
        <time>2025-12-18T15:49:29Z</time>
      </trkpt>
      <trkpt lat="49.72599" lon="5.47606">
        <ele>357</ele>
        <time>2025-12-18T15:50:08Z</time>
      </trkpt>
      <trkpt lat="49.7265" lon="5.47675">
        <ele>361</ele>
        <time>2025-12-18T15:50:42Z</time>
      </trkpt>
      <trkpt lat="49.72691" lon="5.4774">
        <ele>362</ele>
        <time>2025-12-18T15:51:11Z</time>
      </trkpt>
      <trkpt lat="49.72741" lon="5.4783">
        <ele>363</ele>
        <time>2025-12-18T15:51:50Z</time>
      </trkpt>
      <trkpt lat="49.72846" lon="5.47641">
        <ele>374</ele>
        <time>2025-12-18T15:53:10Z</time>
      </trkpt>
      <trkpt lat="49.72876" lon="5.47589">
        <ele>377</ele>
        <time>2025-12-18T15:53:33Z</time>
      </trkpt>
      <trkpt lat="49.72876" lon="5.47588">
        <ele>377</ele>
        <time>2025-12-18T15:53:33Z</time>
      </trkpt>
      <trkpt lat="49.72879" lon="5.47584">
        <ele>377</ele>
        <time>2025-12-18T15:53:35Z</time>
      </trkpt>
      <trkpt lat="49.72879" lon="5.47582">
        <ele>377</ele>
        <time>2025-12-18T15:53:36Z</time>
      </trkpt>
      <trkpt lat="49.72879" lon="5.47582">
        <ele>377</ele>
        <time>2025-12-18T15:53:36Z</time>
      </trkpt>
      <trkpt lat="49.7288" lon="5.47581">
        <ele>377</ele>
        <time>2025-12-18T15:53:36Z</time>
      </trkpt>
      <trkpt lat="49.72891" lon="5.47562">
        <ele>378</ele>
        <time>2025-12-18T15:53:45Z</time>
      </trkpt>
      <trkpt lat="49.7292" lon="5.47572">
        <ele>382</ele>
        <time>2025-12-18T15:54:00Z</time>
      </trkpt>
      <trkpt lat="49.72954" lon="5.47576">
        <ele>382</ele>
        <time>2025-12-18T15:54:17Z</time>
      </trkpt>
      <trkpt lat="49.72972" lon="5.47581">
        <ele>383</ele>
        <time>2025-12-18T15:54:26Z</time>
      </trkpt>
      <trkpt lat="49.7297" lon="5.47585">
        <ele>383</ele>
        <time>2025-12-18T15:54:27Z</time>
      </trkpt>
      <trkpt lat="49.7297" lon="5.47603">
        <ele>383</ele>
        <time>2025-12-18T15:54:33Z</time>
      </trkpt>
      <trkpt lat="49.72976" lon="5.47631">
        <ele>383</ele>
        <time>2025-12-18T15:54:43Z</time>
      </trkpt>
      <trkpt lat="49.72976" lon="5.47652">
        <ele>383</ele>
        <time>2025-12-18T15:54:50Z</time>
      </trkpt>
      <trkpt lat="49.72967" lon="5.47705">
        <ele>382</ele>
        <time>2025-12-18T15:55:07Z</time>
      </trkpt>
      <trkpt lat="49.72965" lon="5.47742">
        <ele>381</ele>
        <time>2025-12-18T15:55:19Z</time>
      </trkpt>
      <trkpt lat="49.72971" lon="5.47768">
        <ele>381</ele>
        <time>2025-12-18T15:55:28Z</time>
      </trkpt>
      <trkpt lat="49.72981" lon="5.47797">
        <ele>380</ele>
        <time>2025-12-18T15:55:39Z</time>
      </trkpt>
      <trkpt lat="49.73007" lon="5.4786">
        <ele>379</ele>
        <time>2025-12-18T15:56:03Z</time>
      </trkpt>
      <trkpt lat="49.73026" lon="5.47912">
        <ele>377</ele>
        <time>2025-12-18T15:56:22Z</time>
      </trkpt>
      <trkpt lat="49.73047" lon="5.48001">
        <ele>372</ele>
        <time>2025-12-18T15:56:53Z</time>
      </trkpt>
      <trkpt lat="49.7305" lon="5.48008">
        <ele>372</ele>
        <time>2025-12-18T15:56:56Z</time>
      </trkpt>
      <trkpt lat="49.73062" lon="5.48012">
        <ele>372</ele>
        <time>2025-12-18T15:57:02Z</time>
      </trkpt>
      <trkpt lat="49.73085" lon="5.48017">
        <ele>372</ele>
        <time>2025-12-18T15:57:14Z</time>
      </trkpt>
      <trkpt lat="49.7312" lon="5.48032">
        <ele>371</ele>
        <time>2025-12-18T15:57:32Z</time>
      </trkpt>
      <trkpt lat="49.73139" lon="5.48055">
        <ele>370</ele>
        <time>2025-12-18T15:57:44Z</time>
      </trkpt>
      <trkpt lat="49.7322" lon="5.48002">
        <ele>373</ele>
        <time>2025-12-18T15:58:28Z</time>
      </trkpt>
      <trkpt lat="49.73602" lon="5.47761">
        <ele>386</ele>
        <time>2025-12-18T16:01:54Z</time>
      </trkpt>
      <trkpt lat="49.73696" lon="5.47687">
        <ele>388</ele>
        <time>2025-12-18T16:02:47Z</time>
      </trkpt>
      <trkpt lat="49.73766" lon="5.47633">
        <ele>390</ele>
        <time>2025-12-18T16:03:26Z</time>
      </trkpt>
      <trkpt lat="49.73838" lon="5.47571">
        <ele>391</ele>
        <time>2025-12-18T16:04:07Z</time>
      </trkpt>
      <trkpt lat="49.73847" lon="5.47593">
        <ele>391</ele>
        <time>2025-12-18T16:04:16Z</time>
      </trkpt>
      <trkpt lat="49.7387" lon="5.47632">
        <ele>392</ele>
        <time>2025-12-18T16:04:33Z</time>
      </trkpt>
      <trkpt lat="49.73879" lon="5.47643">
        <ele>393</ele>
        <time>2025-12-18T16:04:39Z</time>
      </trkpt>
      <trkpt lat="49.73901" lon="5.47659">
        <ele>393</ele>
        <time>2025-12-18T16:04:51Z</time>
      </trkpt>
      <trkpt lat="49.73906" lon="5.47669">
        <ele>394</ele>
        <time>2025-12-18T16:04:55Z</time>
      </trkpt>
      <trkpt lat="49.73906" lon="5.47669">
        <ele>394</ele>
        <time>2025-12-18T16:04:55Z</time>
      </trkpt>
      <trkpt lat="49.7391" lon="5.4768">
        <ele>394</ele>
        <time>2025-12-18T16:04:59Z</time>
      </trkpt>
      <trkpt lat="49.73915" lon="5.47694">
        <ele>395</ele>
        <time>2025-12-18T16:05:04Z</time>
      </trkpt>
      <trkpt lat="49.73921" lon="5.47697">
        <ele>395</ele>
        <time>2025-12-18T16:05:07Z</time>
      </trkpt>
      <trkpt lat="49.73936" lon="5.47699">
        <ele>396</ele>
        <time>2025-12-18T16:05:15Z</time>
      </trkpt>
      <trkpt lat="49.73946" lon="5.47696">
        <ele>396</ele>
        <time>2025-12-18T16:05:20Z</time>
      </trkpt>
      <trkpt lat="49.73948" lon="5.47694">
        <ele>396</ele>
        <time>2025-12-18T16:05:21Z</time>
      </trkpt>
      <trkpt lat="49.73948" lon="5.47694">
        <ele>396</ele>
        <time>2025-12-18T16:05:21Z</time>
      </trkpt>
      <trkpt lat="49.73976" lon="5.47663">
        <ele>397</ele>
        <time>2025-12-18T16:05:38Z</time>
      </trkpt>
      <trkpt lat="49.73993" lon="5.47653">
        <ele>398</ele>
        <time>2025-12-18T16:05:47Z</time>
      </trkpt>
      <trkpt lat="49.74044" lon="5.47625">
        <ele>400</ele>
        <time>2025-12-18T16:06:15Z</time>
      </trkpt>
      <trkpt lat="49.74128" lon="5.47575">
        <ele>401</ele>
        <time>2025-12-18T16:07:00Z</time>
      </trkpt>
      <trkpt lat="49.74133" lon="5.4757">
        <ele>401</ele>
        <time>2025-12-18T16:07:03Z</time>
      </trkpt>
      <trkpt lat="49.74156" lon="5.47541">
        <ele>401</ele>
        <time>2025-12-18T16:07:17Z</time>
      </trkpt>
      <trkpt lat="49.74196" lon="5.47506">
        <ele>402</ele>
        <time>2025-12-18T16:07:40Z</time>
      </trkpt>
      <trkpt lat="49.74238" lon="5.47461">
        <ele>405</ele>
        <time>2025-12-18T16:08:06Z</time>
      </trkpt>
      <trkpt lat="49.74268" lon="5.47416">
        <ele>406</ele>
        <time>2025-12-18T16:08:27Z</time>
      </trkpt>
      <trkpt lat="49.74283" lon="5.47394">
        <ele>407</ele>
        <time>2025-12-18T16:08:37Z</time>
      </trkpt>
      <trkpt lat="49.7432" lon="5.47318">
        <ele>407</ele>
        <time>2025-12-18T16:09:08Z</time>
      </trkpt>
      <trkpt lat="49.74325" lon="5.47298">
        <ele>406</ele>
        <time>2025-12-18T16:09:15Z</time>
      </trkpt>
      <trkpt lat="49.74334" lon="5.47282">
        <ele>406</ele>
        <time>2025-12-18T16:09:22Z</time>
      </trkpt>
      <trkpt lat="49.74339" lon="5.47252">
        <ele>405</ele>
        <time>2025-12-18T16:09:32Z</time>
      </trkpt>
      <trkpt lat="49.74346" lon="5.47245">
        <ele>406</ele>
        <time>2025-12-18T16:09:36Z</time>
      </trkpt>
      <trkpt lat="49.74359" lon="5.47255">
        <ele>407</ele>
        <time>2025-12-18T16:09:43Z</time>
      </trkpt>
      <trkpt lat="49.74373" lon="5.47256">
        <ele>407</ele>
        <time>2025-12-18T16:09:50Z</time>
      </trkpt>
      <trkpt lat="49.74382" lon="5.47244">
        <ele>408</ele>
        <time>2025-12-18T16:09:56Z</time>
      </trkpt>
      <trkpt lat="49.74392" lon="5.47242">
        <ele>408</ele>
        <time>2025-12-18T16:10:01Z</time>
      </trkpt>
      <trkpt lat="49.74403" lon="5.47244">
        <ele>409</ele>
        <time>2025-12-18T16:10:07Z</time>
      </trkpt>
      <trkpt lat="49.74439" lon="5.4723">
        <ele>411</ele>
        <time>2025-12-18T16:10:25Z</time>
      </trkpt>
      <trkpt lat="49.74578" lon="5.47149">
        <ele>418</ele>
        <time>2025-12-18T16:11:40Z</time>
      </trkpt>
      <trkpt lat="49.74603" lon="5.47148">
        <ele>419</ele>
        <time>2025-12-18T16:11:52Z</time>
      </trkpt>
      <trkpt lat="49.74638" lon="5.47124">
        <ele>420</ele>
        <time>2025-12-18T16:12:11Z</time>
      </trkpt>
      <trkpt lat="49.7467" lon="5.47084">
        <ele>420</ele>
        <time>2025-12-18T16:12:32Z</time>
      </trkpt>
      <trkpt lat="49.74684" lon="5.4707">
        <ele>422</ele>
        <time>2025-12-18T16:12:40Z</time>
      </trkpt>
      <trkpt lat="49.74793" lon="5.46966">
        <ele>432</ele>
        <time>2025-12-18T16:13:44Z</time>
      </trkpt>
      <trkpt lat="49.74802" lon="5.46939">
        <ele>432</ele>
        <time>2025-12-18T16:13:54Z</time>
      </trkpt>
      <trkpt lat="49.748" lon="5.46907">
        <ele>433</ele>
        <time>2025-12-18T16:14:05Z</time>
      </trkpt>
      <trkpt lat="49.7481" lon="5.46858">
        <ele>433</ele>
        <time>2025-12-18T16:14:21Z</time>
      </trkpt>
      <trkpt lat="49.74809" lon="5.46831">
        <ele>433</ele>
        <time>2025-12-18T16:14:30Z</time>
      </trkpt>
      <trkpt lat="49.74812" lon="5.46803">
        <ele>432</ele>
        <time>2025-12-18T16:14:39Z</time>
      </trkpt>
      <trkpt lat="49.74829" lon="5.46763">
        <ele>430</ele>
        <time>2025-12-18T16:14:55Z</time>
      </trkpt>
      <trkpt lat="49.74842" lon="5.46702">
        <ele>429</ele>
        <time>2025-12-18T16:15:15Z</time>
      </trkpt>
      <trkpt lat="49.74841" lon="5.46688">
        <ele>429</ele>
        <time>2025-12-18T16:15:20Z</time>
      </trkpt>
      <trkpt lat="49.74836" lon="5.46672">
        <ele>429</ele>
        <time>2025-12-18T16:15:26Z</time>
      </trkpt>
      <trkpt lat="49.74829" lon="5.4666">
        <ele>429</ele>
        <time>2025-12-18T16:15:31Z</time>
      </trkpt>
      <trkpt lat="49.74821" lon="5.4665">
        <ele>430</ele>
        <time>2025-12-18T16:15:36Z</time>
      </trkpt>
      <trkpt lat="49.7479" lon="5.46611">
        <ele>432</ele>
        <time>2025-12-18T16:15:56Z</time>
      </trkpt>
      <trkpt lat="49.74765" lon="5.46552">
        <ele>433</ele>
        <time>2025-12-18T16:16:19Z</time>
      </trkpt>
      <trkpt lat="49.74742" lon="5.46525">
        <ele>435</ele>
        <time>2025-12-18T16:16:33Z</time>
      </trkpt>
      <trkpt lat="49.74722" lon="5.46488">
        <ele>438</ele>
        <time>2025-12-18T16:16:49Z</time>
      </trkpt>
      <trkpt lat="49.74703" lon="5.46442">
        <ele>440</ele>
        <time>2025-12-18T16:17:07Z</time>
      </trkpt>
      <trkpt lat="49.74696" lon="5.46417">
        <ele>441</ele>
        <time>2025-12-18T16:17:15Z</time>
      </trkpt>
      <trkpt lat="49.74684" lon="5.46394">
        <ele>443</ele>
        <time>2025-12-18T16:17:25Z</time>
      </trkpt>
      <trkpt lat="49.74679" lon="5.46376">
        <ele>443</ele>
        <time>2025-12-18T16:17:31Z</time>
      </trkpt>
      <trkpt lat="49.74684" lon="5.46326">
        <ele>444</ele>
        <time>2025-12-18T16:17:48Z</time>
      </trkpt>
      <trkpt lat="49.74686" lon="5.46286">
        <ele>444</ele>
        <time>2025-12-18T16:18:01Z</time>
      </trkpt>
      <trkpt lat="49.74682" lon="5.46243">
        <ele>446</ele>
        <time>2025-12-18T16:18:15Z</time>
      </trkpt>
      <trkpt lat="49.74679" lon="5.46191">
        <ele>449</ele>
        <time>2025-12-18T16:18:31Z</time>
      </trkpt>
      <trkpt lat="49.74674" lon="5.46157">
        <ele>451</ele>
        <time>2025-12-18T16:18:43Z</time>
      </trkpt>
      <trkpt lat="49.74661" lon="5.46126">
        <ele>452</ele>
        <time>2025-12-18T16:18:55Z</time>
      </trkpt>
      <trkpt lat="49.74646" lon="5.46114">
        <ele>453</ele>
        <time>2025-12-18T16:19:03Z</time>
      </trkpt>
      <trkpt lat="49.74622" lon="5.4611">
        <ele>454</ele>
        <time>2025-12-18T16:19:15Z</time>
      </trkpt>
      <trkpt lat="49.74626" lon="5.46046">
        <ele>453</ele>
        <time>2025-12-18T16:19:36Z</time>
      </trkpt>
      <trkpt lat="49.74624" lon="5.46028">
        <ele>453</ele>
        <time>2025-12-18T16:19:42Z</time>
      </trkpt>
      <trkpt lat="49.74626" lon="5.45997">
        <ele>453</ele>
        <time>2025-12-18T16:19:52Z</time>
      </trkpt>
      <trkpt lat="49.74618" lon="5.45968">
        <ele>453</ele>
        <time>2025-12-18T16:20:02Z</time>
      </trkpt>
      <trkpt lat="49.74613" lon="5.45936">
        <ele>454</ele>
        <time>2025-12-18T16:20:13Z</time>
      </trkpt>
      <trkpt lat="49.74615" lon="5.45902">
        <ele>455</ele>
        <time>2025-12-18T16:20:24Z</time>
      </trkpt>
      <trkpt lat="49.74603" lon="5.45848">
        <ele>455</ele>
        <time>2025-12-18T16:20:42Z</time>
      </trkpt>
      <trkpt lat="49.7469" lon="5.45898">
        <ele>457</ele>
        <time>2025-12-18T16:21:29Z</time>
      </trkpt>
      <trkpt lat="49.74943" lon="5.46027">
        <ele>443</ele>
        <time>2025-12-18T16:23:42Z</time>
      </trkpt>
      <trkpt lat="49.75392" lon="5.46256">
        <ele>426</ele>
        <time>2025-12-18T16:27:39Z</time>
      </trkpt>
      <trkpt lat="49.75578" lon="5.46105">
        <ele>428</ele>
        <time>2025-12-18T16:29:24Z</time>
      </trkpt>
      <trkpt lat="49.75856" lon="5.45891">
        <ele>411</ele>
        <time>2025-12-18T16:31:59Z</time>
      </trkpt>
      <trkpt lat="49.75878" lon="5.45873">
        <ele>408</ele>
        <time>2025-12-18T16:32:12Z</time>
      </trkpt>
      <trkpt lat="49.75892" lon="5.45856">
        <ele>405</ele>
        <time>2025-12-18T16:32:21Z</time>
      </trkpt>
      <trkpt lat="49.75899" lon="5.45841">
        <ele>403</ele>
        <time>2025-12-18T16:32:26Z</time>
      </trkpt>
      <trkpt lat="49.75916" lon="5.45796">
        <ele>399</ele>
        <time>2025-12-18T16:32:43Z</time>
      </trkpt>
      <trkpt lat="49.75925" lon="5.45768">
        <ele>398</ele>
        <time>2025-12-18T16:32:53Z</time>
      </trkpt>
      <trkpt lat="49.7593" lon="5.45747">
        <ele>398</ele>
        <time>2025-12-18T16:33:01Z</time>
      </trkpt>
      <trkpt lat="49.75909" lon="5.45607">
        <ele>405</ele>
        <time>2025-12-18T16:33:47Z</time>
      </trkpt>
      <trkpt lat="49.75885" lon="5.45419">
        <ele>407</ele>
        <time>2025-12-18T16:34:49Z</time>
      </trkpt>
      <trkpt lat="49.75877" lon="5.45345">
        <ele>407</ele>
        <time>2025-12-18T16:35:13Z</time>
      </trkpt>
      <trkpt lat="49.75858" lon="5.45223">
        <ele>409</ele>
        <time>2025-12-18T16:35:54Z</time>
      </trkpt>
      <trkpt lat="49.75844" lon="5.45151">
        <ele>408</ele>
        <time>2025-12-18T16:36:18Z</time>
      </trkpt>
      <trkpt lat="49.7583" lon="5.4511">
        <ele>406</ele>
        <time>2025-12-18T16:36:33Z</time>
      </trkpt>
      <trkpt lat="49.75795" lon="5.4498">
        <ele>399</ele>
        <time>2025-12-18T16:37:19Z</time>
      </trkpt>
      <trkpt lat="49.75787" lon="5.44946">
        <ele>397</ele>
        <time>2025-12-18T16:37:30Z</time>
      </trkpt>
      <trkpt lat="49.75785" lon="5.44917">
        <ele>396</ele>
        <time>2025-12-18T16:37:40Z</time>
      </trkpt>
      <trkpt lat="49.75785" lon="5.4489">
        <ele>394</ele>
        <time>2025-12-18T16:37:49Z</time>
      </trkpt>
      <trkpt lat="49.75788" lon="5.44858">
        <ele>394</ele>
        <time>2025-12-18T16:37:59Z</time>
      </trkpt>
      <trkpt lat="49.75813" lon="5.44677">
        <ele>399</ele>
        <time>2025-12-18T16:38:59Z</time>
      </trkpt>
      <trkpt lat="49.75822" lon="5.44634">
        <ele>398</ele>
        <time>2025-12-18T16:39:14Z</time>
      </trkpt>
      <trkpt lat="49.75832" lon="5.44592">
        <ele>396</ele>
        <time>2025-12-18T16:39:28Z</time>
      </trkpt>
      <trkpt lat="49.75845" lon="5.44554">
        <ele>390</ele>
        <time>2025-12-18T16:39:42Z</time>
      </trkpt>
      <trkpt lat="49.75869" lon="5.44486">
        <ele>380</ele>
        <time>2025-12-18T16:40:07Z</time>
      </trkpt>
      <trkpt lat="49.75845" lon="5.44506">
        <ele>381</ele>
        <time>2025-12-18T16:40:21Z</time>
      </trkpt>
      <trkpt lat="49.7577" lon="5.4459">
        <ele>387</ele>
        <time>2025-12-18T16:41:07Z</time>
      </trkpt>
      <trkpt lat="49.75756" lon="5.44608">
        <ele>386</ele>
        <time>2025-12-18T16:41:16Z</time>
      </trkpt>
      <trkpt lat="49.75744" lon="5.4462">
        <ele>386</ele>
        <time>2025-12-18T16:41:23Z</time>
      </trkpt>
      <trkpt lat="49.75732" lon="5.44628">
        <ele>385</ele>
        <time>2025-12-18T16:41:30Z</time>
      </trkpt>
      <trkpt lat="49.75727" lon="5.44629">
        <ele>384</ele>
        <time>2025-12-18T16:41:32Z</time>
      </trkpt>
      <trkpt lat="49.75715" lon="5.44632">
        <ele>383</ele>
        <time>2025-12-18T16:41:38Z</time>
      </trkpt>
      <trkpt lat="49.75708" lon="5.44632">
        <ele>382</ele>
        <time>2025-12-18T16:41:42Z</time>
      </trkpt>
      <trkpt lat="49.75696" lon="5.4463">
        <ele>381</ele>
        <time>2025-12-18T16:41:48Z</time>
      </trkpt>
      <trkpt lat="49.75656" lon="5.44615">
        <ele>379</ele>
        <time>2025-12-18T16:42:08Z</time>
      </trkpt>
      <trkpt lat="49.75623" lon="5.44614">
        <ele>382</ele>
        <time>2025-12-18T16:42:25Z</time>
      </trkpt>
      <trkpt lat="49.75609" lon="5.44619">
        <ele>383</ele>
        <time>2025-12-18T16:42:32Z</time>
      </trkpt>
      <trkpt lat="49.75565" lon="5.44644">
        <ele>385</ele>
        <time>2025-12-18T16:42:56Z</time>
      </trkpt>
      <trkpt lat="49.75497" lon="5.44664">
        <ele>392</ele>
        <time>2025-12-18T16:43:30Z</time>
      </trkpt>
      <trkpt lat="49.75451" lon="5.44674">
        <ele>398</ele>
        <time>2025-12-18T16:43:53Z</time>
      </trkpt>
      <trkpt lat="49.75427" lon="5.44671">
        <ele>402</ele>
        <time>2025-12-18T16:44:06Z</time>
      </trkpt>
      <trkpt lat="49.75388" lon="5.44687">
        <ele>404</ele>
        <time>2025-12-18T16:44:26Z</time>
      </trkpt>
      <trkpt lat="49.75301" lon="5.44651">
        <ele>411</ele>
        <time>2025-12-18T16:45:11Z</time>
      </trkpt>
      <trkpt lat="49.75282" lon="5.44634">
        <ele>413</ele>
        <time>2025-12-18T16:45:22Z</time>
      </trkpt>
      <trkpt lat="49.75242" lon="5.44616">
        <ele>417</ele>
        <time>2025-12-18T16:45:43Z</time>
      </trkpt>
      <trkpt lat="49.75181" lon="5.44563">
        <ele>423</ele>
        <time>2025-12-18T16:46:18Z</time>
      </trkpt>
      <trkpt lat="49.75107" lon="5.44525">
        <ele>425</ele>
        <time>2025-12-18T16:46:57Z</time>
      </trkpt>
      <trkpt lat="49.75011" lon="5.44704">
        <ele>430</ele>
        <time>2025-12-18T16:48:12Z</time>
      </trkpt>
      <trkpt lat="49.74835" lon="5.45032">
        <ele>437</ele>
        <time>2025-12-18T16:50:30Z</time>
      </trkpt>
      <trkpt lat="49.74717" lon="5.45241">
        <ele>443</ele>
        <time>2025-12-18T16:51:59Z</time>
      </trkpt>
      <trkpt lat="49.74569" lon="5.45531">
        <ele>447</ele>
        <time>2025-12-18T16:53:59Z</time>
      </trkpt>
      <trkpt lat="49.74452" lon="5.45738">
        <ele>447</ele>
        <time>2025-12-18T16:55:28Z</time>
      </trkpt>
      <trkpt lat="49.74438" lon="5.4576">
        <ele>448</ele>
        <time>2025-12-18T16:55:38Z</time>
      </trkpt>
      <trkpt lat="49.74353" lon="5.45859">
        <ele>452</ele>
        <time>2025-12-18T16:56:31Z</time>
      </trkpt>
      <trkpt lat="49.74307" lon="5.45908">
        <ele>451</ele>
        <time>2025-12-18T16:56:59Z</time>
      </trkpt>
      <trkpt lat="49.74267" lon="5.45956">
        <ele>448</ele>
        <time>2025-12-18T16:57:24Z</time>
      </trkpt>
      <trkpt lat="49.74229" lon="5.45995">
        <ele>447</ele>
        <time>2025-12-18T16:57:47Z</time>
      </trkpt>
      <trkpt lat="49.74026" lon="5.46221">
        <ele>433</ele>
        <time>2025-12-18T16:59:52Z</time>
      </trkpt>
      <trkpt lat="49.73912" lon="5.46349">
        <ele>428</ele>
        <time>2025-12-18T17:01:03Z</time>
      </trkpt>
      <trkpt lat="49.73751" lon="5.46534">
        <ele>411</ele>
        <time>2025-12-18T17:02:43Z</time>
      </trkpt>
      <trkpt lat="49.7361" lon="5.46697">
        <ele>396</ele>
        <time>2025-12-18T17:04:11Z</time>
      </trkpt>
      <trkpt lat="49.73576" lon="5.46741">
        <ele>392</ele>
        <time>2025-12-18T17:04:33Z</time>
      </trkpt>
      <trkpt lat="49.73527" lon="5.46789">
        <ele>387</ele>
        <time>2025-12-18T17:05:02Z</time>
      </trkpt>
      <trkpt lat="49.73459" lon="5.46865">
        <ele>380</ele>
        <time>2025-12-18T17:05:44Z</time>
      </trkpt>
      <trkpt lat="49.73451" lon="5.46873">
        <ele>380</ele>
        <time>2025-12-18T17:05:49Z</time>
      </trkpt>
      <trkpt lat="49.73456" lon="5.46882">
        <ele>380</ele>
        <time>2025-12-18T17:05:53Z</time>
      </trkpt>
      <trkpt lat="49.73462" lon="5.46885">
        <ele>380</ele>
        <time>2025-12-18T17:05:56Z</time>
      </trkpt>
      <trkpt lat="49.73469" lon="5.46883">
        <ele>381</ele>
        <time>2025-12-18T17:06:00Z</time>
      </trkpt>
      <trkpt lat="49.73485" lon="5.4689">
        <ele>381</ele>
        <time>2025-12-18T17:06:08Z</time>
      </trkpt>
      <trkpt lat="49.73504" lon="5.46894">
        <ele>383</ele>
        <time>2025-12-18T17:06:18Z</time>
      </trkpt>
      <trkpt lat="49.73537" lon="5.46894">
        <ele>385</ele>
        <time>2025-12-18T17:06:34Z</time>
      </trkpt>
      <trkpt lat="49.73583" lon="5.4689">
        <ele>388</ele>
        <time>2025-12-18T17:06:57Z</time>
      </trkpt>
      <trkpt lat="49.73598" lon="5.4689">
        <ele>389</ele>
        <time>2025-12-18T17:07:05Z</time>
      </trkpt>
      <trkpt lat="49.73611" lon="5.46896">
        <ele>390</ele>
        <time>2025-12-18T17:07:12Z</time>
      </trkpt>
      <trkpt lat="49.7363" lon="5.4693">
        <ele>391</ele>
        <time>2025-12-18T17:07:26Z</time>
      </trkpt>
      <trkpt lat="49.73636" lon="5.46949">
        <ele>391</ele>
        <time>2025-12-18T17:07:33Z</time>
      </trkpt>
      <trkpt lat="49.73646" lon="5.46965">
        <ele>392</ele>
        <time>2025-12-18T17:07:40Z</time>
      </trkpt>
      <trkpt lat="49.73673" lon="5.46994">
        <ele>394</ele>
        <time>2025-12-18T17:07:57Z</time>
      </trkpt>
      <trkpt lat="49.73681" lon="5.47035">
        <ele>394</ele>
        <time>2025-12-18T17:08:10Z</time>
      </trkpt>
      <trkpt lat="49.73698" lon="5.47062">
        <ele>395</ele>
        <time>2025-12-18T17:08:23Z</time>
      </trkpt>
      <trkpt lat="49.7373" lon="5.47084">
        <ele>395</ele>
        <time>2025-12-18T17:08:40Z</time>
      </trkpt>
      <trkpt lat="49.73758" lon="5.47107">
        <ele>396</ele>
        <time>2025-12-18T17:08:56Z</time>
      </trkpt>
      <trkpt lat="49.73761" lon="5.47114">
        <ele>396</ele>
        <time>2025-12-18T17:08:59Z</time>
      </trkpt>
      <trkpt lat="49.73747" lon="5.47208">
        <ele>393</ele>
        <time>2025-12-18T17:09:30Z</time>
      </trkpt>
      <trkpt lat="49.73727" lon="5.47319">
        <ele>394</ele>
        <time>2025-12-18T17:10:07Z</time>
      </trkpt>
      <trkpt lat="49.73717" lon="5.47393">
        <ele>393</ele>
        <time>2025-12-18T17:10:32Z</time>
      </trkpt>
      <trkpt lat="49.73713" lon="5.47424">
        <ele>393</ele>
        <time>2025-12-18T17:10:42Z</time>
      </trkpt>
      <trkpt lat="49.73714" lon="5.47551">
        <ele>391</ele>
        <time>2025-12-18T17:11:23Z</time>
      </trkpt>
      <trkpt lat="49.73681" lon="5.47503">
        <ele>394</ele>
        <time>2025-12-18T17:11:46Z</time>
      </trkpt>
      <trkpt lat="49.73641" lon="5.47431">
        <ele>396</ele>
        <time>2025-12-18T17:12:16Z</time>
      </trkpt>
      <trkpt lat="49.73561" lon="5.47271">
        <ele>392</ele>
        <time>2025-12-18T17:13:22Z</time>
      </trkpt>
      <trkpt lat="49.73552" lon="5.47267">
        <ele>392</ele>
        <time>2025-12-18T17:13:26Z</time>
      </trkpt>
      <trkpt lat="49.73535" lon="5.47268">
        <ele>392</ele>
        <time>2025-12-18T17:13:35Z</time>
      </trkpt>
      <trkpt lat="49.73513" lon="5.47275">
        <ele>392</ele>
        <time>2025-12-18T17:13:46Z</time>
      </trkpt>
      <trkpt lat="49.73371" lon="5.47362">
        <ele>389</ele>
        <time>2025-12-18T17:15:03Z</time>
      </trkpt>
      <trkpt lat="49.73358" lon="5.47361">
        <ele>388</ele>
        <time>2025-12-18T17:15:09Z</time>
      </trkpt>
      <trkpt lat="49.7335" lon="5.47363">
        <ele>388</ele>
        <time>2025-12-18T17:15:13Z</time>
      </trkpt>
      <trkpt lat="49.73246" lon="5.47473">
        <ele>385</ele>
        <time>2025-12-18T17:16:16Z</time>
      </trkpt>
      <trkpt lat="49.72976" lon="5.47576">
        <ele>382</ele>
        <time>2025-12-18T17:18:35Z</time>
      </trkpt>
      <trkpt lat="49.72972" lon="5.47581">
        <ele>383</ele>
        <time>2025-12-18T17:18:38Z</time>
      </trkpt>
      <trkpt lat="49.72954" lon="5.47576">
        <ele>382</ele>
        <time>2025-12-18T17:18:47Z</time>
      </trkpt>
      <trkpt lat="49.7292" lon="5.47572">
        <ele>382</ele>
        <time>2025-12-18T17:19:04Z</time>
      </trkpt>
      <trkpt lat="49.72891" lon="5.47562">
        <ele>378</ele>
        <time>2025-12-18T17:19:19Z</time>
      </trkpt>
      <trkpt lat="49.7288" lon="5.47581">
        <ele>377</ele>
        <time>2025-12-18T17:19:27Z</time>
      </trkpt>
      <trkpt lat="49.72879" lon="5.47582">
        <ele>377</ele>
        <time>2025-12-18T17:19:28Z</time>
      </trkpt>
      <trkpt lat="49.72879" lon="5.47582">
        <ele>377</ele>
        <time>2025-12-18T17:19:28Z</time>
      </trkpt>
      <trkpt lat="49.72879" lon="5.47584">
        <ele>377</ele>
        <time>2025-12-18T17:19:29Z</time>
      </trkpt>
      <trkpt lat="49.72876" lon="5.47588">
        <ele>377</ele>
        <time>2025-12-18T17:19:31Z</time>
      </trkpt>
      <trkpt lat="49.72876" lon="5.47589">
        <ele>377</ele>
        <time>2025-12-18T17:19:31Z</time>
      </trkpt>
      <trkpt lat="49.72846" lon="5.47641">
        <ele>374</ele>
        <time>2025-12-18T17:19:53Z</time>
      </trkpt>
      <trkpt lat="49.72741" lon="5.4783">
        <ele>363</ele>
        <time>2025-12-18T17:21:14Z</time>
      </trkpt>
      <trkpt lat="49.72691" lon="5.4774">
        <ele>362</ele>
        <time>2025-12-18T17:21:52Z</time>
      </trkpt>
      <trkpt lat="49.7265" lon="5.47675">
        <ele>361</ele>
        <time>2025-12-18T17:22:22Z</time>
      </trkpt>
      <trkpt lat="49.72599" lon="5.47606">
        <ele>357</ele>
        <time>2025-12-18T17:22:56Z</time>
      </trkpt>
      <trkpt lat="49.72543" lon="5.4752">
        <ele>354</ele>
        <time>2025-12-18T17:23:35Z</time>
      </trkpt>
      <trkpt lat="49.72535" lon="5.47512">
        <ele>353</ele>
        <time>2025-12-18T17:23:40Z</time>
      </trkpt>
      <trkpt lat="49.72479" lon="5.47587">
        <ele>354</ele>
        <time>2025-12-18T17:24:17Z</time>
      </trkpt>
      <trkpt lat="49.72471" lon="5.47599">
        <ele>354</ele>
        <time>2025-12-18T17:24:23Z</time>
      </trkpt>
      <trkpt lat="49.72433" lon="5.47669">
        <ele>354</ele>
        <time>2025-12-18T17:24:52Z</time>
      </trkpt>
      <trkpt lat="49.7241" lon="5.47703">
        <ele>353</ele>
        <time>2025-12-18T17:25:08Z</time>
      </trkpt>
      <trkpt lat="49.72361" lon="5.47749">
        <ele>350</ele>
        <time>2025-12-18T17:25:37Z</time>
      </trkpt>
      <trkpt lat="49.72327" lon="5.4778">
        <ele>349</ele>
        <time>2025-12-18T17:25:57Z</time>
      </trkpt>
      <trkpt lat="49.7229" lon="5.47827">
        <ele>347</ele>
        <time>2025-12-18T17:26:20Z</time>
      </trkpt>
      <trkpt lat="49.72251" lon="5.479">
        <ele>347</ele>
        <time>2025-12-18T17:26:51Z</time>
      </trkpt>
      <trkpt lat="49.72224" lon="5.47947">
        <ele>347</ele>
        <time>2025-12-18T17:27:11Z</time>
      </trkpt>
      <trkpt lat="49.72216" lon="5.47958">
        <ele>347</ele>
        <time>2025-12-18T17:27:17Z</time>
      </trkpt>
      <trkpt lat="49.72216" lon="5.4796">
        <ele>347</ele>
        <time>2025-12-18T17:27:17Z</time>
      </trkpt>
      <trkpt lat="49.72216" lon="5.47958">
        <ele>347</ele>
        <time>2025-12-18T17:27:18Z</time>
      </trkpt>
      <trkpt lat="49.72196" lon="5.47972">
        <ele>347</ele>
        <time>2025-12-18T17:27:29Z</time>
      </trkpt>
      <trkpt lat="49.72177" lon="5.47984">
        <ele>346</ele>
        <time>2025-12-18T17:27:39Z</time>
      </trkpt>
      <trkpt lat="49.72166" lon="5.47989">
        <ele>346</ele>
        <time>2025-12-18T17:27:45Z</time>
      </trkpt>
      <trkpt lat="49.72119" lon="5.4801">
        <ele>344</ele>
        <time>2025-12-18T17:28:10Z</time>
      </trkpt>
      <trkpt lat="49.7211" lon="5.48019">
        <ele>344</ele>
        <time>2025-12-18T17:28:15Z</time>
      </trkpt>
      <trkpt lat="49.72097" lon="5.4804">
        <ele>344</ele>
        <time>2025-12-18T17:28:24Z</time>
      </trkpt>
      <trkpt lat="49.72082" lon="5.4808">
        <ele>343</ele>
        <time>2025-12-18T17:28:39Z</time>
      </trkpt>
      <trkpt lat="49.72053" lon="5.48058">
        <ele>342</ele>
        <time>2025-12-18T17:28:55Z</time>
      </trkpt>
      <trkpt lat="49.72045" lon="5.48044">
        <ele>341</ele>
        <time>2025-12-18T17:29:02Z</time>
      </trkpt>
      <trkpt lat="49.72042" lon="5.48027">
        <ele>341</ele>
        <time>2025-12-18T17:29:07Z</time>
      </trkpt>
      <trkpt lat="49.72034" lon="5.48036">
        <ele>341</ele>
        <time>2025-12-18T17:29:12Z</time>
      </trkpt>
      <trkpt lat="49.72034" lon="5.48036">
        <ele>341</ele>
        <time>2025-12-18T17:29:12Z</time>
      </trkpt>
      <trkpt lat="49.7202" lon="5.48055">
        <ele>340</ele>
        <time>2025-12-18T17:29:21Z</time>
      </trkpt>
      <trkpt lat="49.72017" lon="5.48067">
        <ele>340</ele>
        <time>2025-12-18T17:29:26Z</time>
      </trkpt>
      <trkpt lat="49.72009" lon="5.48084">
        <ele>339</ele>
        <time>2025-12-18T17:29:32Z</time>
      </trkpt>
      <trkpt lat="49.72001" lon="5.4811">
        <ele>339</ele>
        <time>2025-12-18T17:29:42Z</time>
      </trkpt>
      <trkpt lat="49.71993" lon="5.48145">
        <ele>338</ele>
        <time>2025-12-18T17:29:54Z</time>
      </trkpt>
      <trkpt lat="49.7199" lon="5.48167">
        <ele>338</ele>
        <time>2025-12-18T17:30:01Z</time>
      </trkpt>
      <trkpt lat="49.71989" lon="5.48204">
        <ele>337</ele>
        <time>2025-12-18T17:30:13Z</time>
      </trkpt>
      <trkpt lat="49.71992" lon="5.48244">
        <ele>336</ele>
        <time>2025-12-18T17:30:26Z</time>
      </trkpt>
      <trkpt lat="49.71997" lon="5.48286">
        <ele>336</ele>
        <time>2025-12-18T17:30:40Z</time>
      </trkpt>
      <trkpt lat="49.71997" lon="5.48298">
        <ele>335</ele>
        <time>2025-12-18T17:30:44Z</time>
      </trkpt>
      <trkpt lat="49.71995" lon="5.48309">
        <ele>335</ele>
        <time>2025-12-18T17:30:47Z</time>
      </trkpt>
      <trkpt lat="49.71959" lon="5.48396">
        <ele>336</ele>
        <time>2025-12-18T17:31:21Z</time>
      </trkpt>
      <trkpt lat="49.71959" lon="5.48396">
        <ele>336</ele>
        <time>2025-12-18T17:31:21Z</time>
      </trkpt>
      <trkpt lat="49.71955" lon="5.48408">
        <ele>336</ele>
        <time>2025-12-18T17:31:25Z</time>
      </trkpt>
      <trkpt lat="49.71932" lon="5.48389">
        <ele>335</ele>
        <time>2025-12-18T17:31:38Z</time>
      </trkpt>
      <trkpt lat="49.71905" lon="5.48368">
        <ele>335</ele>
        <time>2025-12-18T17:31:53Z</time>
      </trkpt>
      <trkpt lat="49.71857" lon="5.48326">
        <ele>335</ele>
        <time>2025-12-18T17:32:21Z</time>
      </trkpt>
      <trkpt lat="49.71851" lon="5.48322">
        <ele>336</ele>
        <time>2025-12-18T17:32:24Z</time>
      </trkpt>
    </trkseg>
  </trk>
</gpx>